| time (UTC) | temp C | wind direction | speed KPH | gust KPH | rain 1hr cm | rain 24hr cm | rain mn cm | humidity % | barometer mb |
| 20260510070703 | 21 | 106 | 0.0 | 0.0 | 0.00 | 0.10 | 0.00 | 90 | 1012.4 |
| 20260510070204 | 21 | 106 | 0.0 | 1.6 | 0.00 | 0.10 | 0.00 | 90 | 1012.4 |
| 20260510063204 | 20 | 106 | 0.0 | 0.0 | 0.00 | 0.10 | 0.00 | 91 | 1012.3 |
| 20260510060704 | 20 | 106 | 0.0 | 0.0 | 0.00 | 0.10 | 0.00 | 90 | 1012.4 |
| 20260510060204 | 20 | 106 | 0.0 | 0.0 | 0.00 | 0.10 | 0.00 | 89 | 1012.4 |
| 20260510053703 | 21 | 106 | 0.0 | 1.6 | 0.00 | 0.10 | 0.00 | 88 | 1012.4 |
| 20260510053204 | 21 | 106 | 0.0 | 1.6 | 0.00 | 0.10 | 0.00 | 88 | 1012.4 |
| 20260510050705 | 21 | 106 | 0.0 | 0.0 | 0.00 | 0.10 | 0.00 | 90 | 1012.3 |
| 20260510050204 | 21 | 106 | 0.0 | 1.6 | 0.00 | 0.10 | 0.00 | 90 | 1012.3 |
| 20260510043704 | 21 | 106 | 0.0 | 0.0 | 0.00 | 0.10 | 0.10 | 89 | 1012.1 |
| 20260510043204 | 21 | 106 | 0.0 | 0.0 | 0.00 | 0.10 | 0.10 | 89 | 1012.1 |
| 20260510040703 | 21 | 106 | 0.0 | 0.0 | 0.00 | 0.10 | 0.10 | 88 | 1011.9 |
| 20260510040204 | 21 | 106 | 0.0 | 1.6 | 0.00 | 0.10 | 0.10 | 88 | 1011.9 |
| 20260510033203 | 22 | 106 | 0.0 | 0.0 | 0.00 | 0.10 | 0.10 | 84 | 1011.8 |
| 20260510030704 | 23 | 106 | 0.0 | 0.0 | 0.00 | 0.10 | 0.10 | 80 | 1011.5 |
| 20260510030203 | 23 | 106 | 0.0 | 1.6 | 0.00 | 0.10 | 0.10 | 81 | 1011.4 |
| 20260510023704 | 22 | 106 | 0.0 | 0.0 | 0.00 | 0.10 | 0.10 | 80 | 1011.1 |
| 20260510023204 | 23 | 106 | 0.0 | 0.0 | 0.00 | 0.10 | 0.10 | 79 | 1011.1 |
| 20260510020703 | 24 | 106 | 0.0 | 0.0 | 0.00 | 0.10 | 0.10 | 75 | 1010.9 |
| 20260510020204 | 25 | 106 | 0.0 | 1.6 | 0.00 | 0.10 | 0.10 | 73 | 1010.8 |
| 20260510013704 | 26 | 148 | 0.0 | 4.8 | 0.00 | 0.10 | 0.10 | 70 | 1010.5 |
| 20260510010704 | 27 | 94 | 1.6 | 4.8 | 0.00 | 0.10 | 0.10 | 66 | 1010.2 |
| 20260510010204 | 27 | 123 | 1.6 | 11.3 | 0.00 | 0.10 | 0.10 | 64 | 1010.1 |
| 20260510003704 | 28 | 86 | 3.2 | 4.8 | 0.00 | 0.10 | 0.10 | 51 | 1009.9 |
| 20260510003204 | 28 | 92 | 1.6 | 4.8 | 0.00 | 0.10 | 0.10 | 50 | 1009.8 |
| 20260510000703 | 29 | 97 | 1.6 | 3.2 | 0.00 | 0.10 | 0.10 | 48 | 1009.5 |
| 20260510000204 | 29 | 143 | 0.0 | 8.0 | 0.00 | 0.10 | 0.10 | 47 | 1009.5 |
| 20260509233704 | 30 | 115 | 3.2 | 4.8 | 0.00 | 0.10 | 0.10 | 46 | 1009.4 |
| 20260509233204 | 30 | 140 | 1.6 | 9.7 | 0.00 | 0.10 | 0.10 | 47 | 1009.4 |
| 20260509230703 | 30 | 105 | 3.2 | 9.7 | 0.00 | 0.10 | 0.10 | 46 | 1009.2 |
| 20260509223704 | 30 | 117 | 8.0 | 14.5 | 0.00 | 0.10 | 0.10 | 52 | 1009.3 |
| 20260509223203 | 30 | 147 | 8.0 | 19.3 | 0.00 | 0.10 | 0.10 | 56 | 1009.3 |
| 20260509220704 | 30 | 128 | 4.8 | 14.5 | 0.00 | 0.10 | 0.10 | 53 | 1009.2 |
| 20260509220204 | 30 | 146 | 3.2 | 12.9 | 0.00 | 0.10 | 0.10 | 53 | 1009.0 |
| 20260509213704 | 28 | 117 | 4.8 | 11.3 | 0.00 | 0.10 | 0.10 | 57 | 1009.4 |
| 20260509213203 | 28 | 126 | 4.8 | 22.5 | 0.00 | 0.10 | 0.10 | 55 | 1009.5 |
| 20260509210703 | 32 | 0 | 4.8 | 12.9 | 0.00 | 0.10 | 0.10 | 44 | 1009.4 |
| 20260509210203 | 32 | 251 | 4.8 | 11.3 | 0.00 | 0.10 | 0.10 | 46 | 1009.4 |
| 20260509203704 | 31 | 30 | 1.6 | 4.8 | 0.00 | 0.10 | 0.10 | 53 | 1009.8 |
| 20260509203203 | 31 | 252 | 1.6 | 16.1 | 0.00 | 0.10 | 0.10 | 50 | 1009.9 |
| 20260509200704 | 31 | 257 | 1.6 | 4.8 | 0.00 | 0.10 | 0.10 | 53 | 1010.1 |
| 20260509200203 | 30 | 284 | 3.2 | 12.9 | 0.00 | 0.10 | 0.10 | 55 | 1010.4 |
| 20260509193703 | 30 | 236 | 4.8 | 14.5 | 0.00 | 0.10 | 0.10 | 58 | 1010.8 |
| 20260509193204 | 30 | 322 | 0.0 | 9.7 | 0.00 | 0.10 | 0.10 | 55 | 1010.7 |
| 20260509190703 | 30 | 146 | 1.6 | 8.0 | 0.00 | 0.10 | 0.10 | 58 | 1011.0 |
| 20260509190203 | 30 | 218 | 3.2 | 14.5 | 0.00 | 0.10 | 0.10 | 60 | 1011.3 |
| 20260509183204 | 30 | 245 | 4.8 | 11.3 | 0.00 | 0.10 | 0.10 | 61 | 1011.7 |
| 20260509180704 | 29 | 207 | 3.2 | 11.3 | 0.00 | 0.10 | 0.10 | 66 | 1011.9 |
| 20260509180204 | 30 | 174 | 4.8 | 12.9 | 0.00 | 0.10 | 0.10 | 66 | 1012.0 |
| 20260509173704 | 28 | 174 | 3.2 | 11.3 | 0.00 | 0.10 | 0.10 | 73 | 1012.2 |
| 20260509173203 | 28 | 215 | 3.2 | 14.5 | 0.00 | 0.10 | 0.10 | 71 | 1012.2 |
| 20260509170704 | 27 | 198 | 4.8 | 11.3 | 0.00 | 0.10 | 0.10 | 75 | 1012.5 |
| 20260509170204 | 27 | 197 | 8.0 | 11.3 | 0.00 | 0.10 | 0.10 | 76 | 1012.5 |
| 20260509163704 | 26 | 230 | 4.8 | 11.3 | 0.00 | 0.10 | 0.10 | 79 | 1012.6 |
| 20260509163204 | 26 | 196 | 6.4 | 16.1 | 0.00 | 0.10 | 0.10 | 80 | 1012.6 |
| 20260509160704 | 25 | 255 | 4.8 | 8.0 | 0.00 | 0.10 | 0.10 | 84 | 1012.7 |
| 20260509160203 | 25 | 204 | 6.4 | 14.5 | 0.00 | 0.10 | 0.10 | 85 | 1012.6 |
| 20260509153703 | 23 | 223 | 3.2 | 8.0 | 0.00 | 0.10 | 0.10 | 92 | 1012.8 |
| 20260509150704 | 22 | 100 | 3.2 | 8.0 | 0.00 | 0.10 | 0.10 | 96 | 1012.9 |
| 20260509150204 | 22 | 157 | 3.2 | 12.9 | 0.00 | 0.10 | 0.10 | 96 | 1012.8 |
| 20260509143704 | 22 | 166 | 3.2 | 8.0 | 0.00 | 0.10 | 0.10 | 96 | 1012.5 |
| 20260509143204 | 22 | 140 | 4.8 | 14.5 | 0.00 | 0.10 | 0.10 | 96 | 1012.3 |
| 20260509140704 | 21 | 20 | 0.0 | 0.0 | 0.00 | 0.10 | 0.10 | 96 | 1012.3 |
| 20260509140204 | 21 | 20 | 0.0 | 1.6 | 0.00 | 0.10 | 0.10 | 96 | 1012.4 |
| 20260509133704 | 21 | 135 | 0.0 | 1.6 | 0.00 | 0.10 | 0.10 | 96 | 1012.4 |
| 20260509133204 | 21 | 135 | 0.0 | 3.2 | 0.00 | 0.10 | 0.10 | 96 | 1012.4 |
| 20260509130704 | 21 | 110 | 0.0 | 1.6 | 0.00 | 0.10 | 0.10 | 96 | 1012.3 |
| 20260509130204 | 21 | 158 | 0.0 | 3.2 | 0.00 | 0.10 | 0.10 | 96 | 1012.2 |
| 20260509123704 | 21 | 113 | 0.0 | 3.2 | 0.00 | 0.10 | 0.10 | 96 | 1012.0 |
| 20260509123203 | 21 | 121 | 3.2 | 4.8 | 0.00 | 0.10 | 0.10 | 96 | 1011.9 |
| 20260509120704 | 21 | 336 | 3.2 | 8.0 | 0.00 | 0.10 | 0.10 | 96 | 1011.8 |
| 20260509120204 | 21 | 327 | 3.2 | 4.8 | 0.00 | 0.10 | 0.10 | 96 | 1011.9 |
| 20260509113704 | 21 | 321 | 0.0 | 3.2 | 0.00 | 0.10 | 0.10 | 96 | 1012.4 |
| 20260509113203 | 21 | 342 | 3.2 | 4.8 | 0.00 | 0.10 | 0.10 | 96 | 1012.6 |
| 20260509110703 | 21 | 15 | 0.0 | 3.2 | 0.00 | 0.10 | 0.10 | 96 | 1012.8 |
| 20260509110204 | 21 | 36 | 0.0 | 4.8 | 0.00 | 0.10 | 0.10 | 96 | 1012.8 |
| 20260509103703 | 21 | 56 | 0.0 | 1.6 | 0.03 | 0.10 | 0.10 | 96 | 1012.2 |
| 20260509103203 | 21 | 56 | 1.6 | 3.2 | 0.03 | 0.10 | 0.10 | 96 | 1012.1 |
| 20260509100703 | 21 | 91 | 1.6 | 4.8 | 0.08 | 0.10 | 0.10 | 95 | 1011.8 |
| 20260509100205 | 21 | 66 | 0.0 | 1.6 | 0.10 | 0.10 | 0.10 | 95 | 1011.8 |
| 20260509093703 | 21 | 355 | 0.0 | 0.0 | 0.08 | 0.08 | 0.08 | 95 | 1011.3 |
| 20260509093203 | 21 | 355 | 0.0 | 3.2 | 0.08 | 0.08 | 0.08 | 95 | 1011.3 |
| 20260509090704 | 21 | 24 | 1.6 | 3.2 | 0.03 | 0.03 | 0.03 | 95 | 1011.4 |
| 20260509090203 | 21 | 355 | 0.0 | 1.6 | 0.00 | 0.00 | 0.00 | 95 | 1011.4 |
| 20260509083704 | 21 | 181 | 0.0 | 0.0 | 0.00 | 0.00 | 0.00 | 95 | 1011.4 |
| 20260509080704 | 22 | 181 | 0.0 | 3.2 | 0.00 | 0.00 | 0.00 | 94 | 1011.4 |
| 20260509080204 | 22 | 141 | 3.2 | 9.7 | 0.00 | 0.00 | 0.00 | 94 | 1011.2 |
| 20260509073704 | 22 | 143 | 1.6 | 4.8 | 0.00 | 0.00 | 0.00 | 94 | 1011.2 |
| 20260509073203 | 22 | 147 | 4.8 | 8.0 | 0.00 | 0.00 | 0.00 | 94 | 1011.2 |